Location: Hardenberg
(52.5670°N, 6.6170°E)
Time: 20:30:55
(UTC+02:00)

ISS - Pass Details

Date: 24 May 2021
Orbit: 417 x 422 km, 51.6° (Epoch: 12 June)

Event Time Altitude Azimuth Distance (km) Brightness Sun altitude
Rises 22:58:02 0° 277° (W) 2,368 0.8 -9.4°
Reaches altitude 10° 23:00:09 10° 274° (W) 1,503 -0.4 -9.6°
Maximum altitude 23:03:29 61° 194° (SSW) 482 -3.7 -9.9°
Enters shadow 23:06:34 12° 114° (ESE) 1,405 -1.6 -10.1°
